Wind_Speed
29 28 29 26 30 32 24 19 15 10 7 4 1 3 2 7 5 9 13 25 25 29 30 32 33 34 33 31 29 26 28 27 15 21 21 27 28 32 29 35 36 37 39
30 27 27 25 20 26 26 22 17 12 8 6 4 4 3 5 3 7 4 16 22 25 27 29 31 30 33 33 29 30 29 29 26 16 16 14 23 27 28 30 34 35 37
25 24 27 23 22 18 25 24 19 15 12 9 6 6 5 3 3 7 7 9 11 11 23 28 31 30 29 30 30 29 28 28 26 23 13 16 14 22 23 30 30 34 37
24 21 25 27 31 27 24 21 20 16 15 13 11 7 5 3 3 5 9 10 13 15 17 17 26 28 30 28 28 30 29 27 26 25 18 15 17 18 22 25 25 31 34
23 24 25 26 25 27 28 28 25 20 15 14 12 9 8 6 10 11 12 12 14 15 17 20 19 28 29 34 31 30 30 28 26 25 13 11 14 12 20 21 20 25 29
24 24 22 22 22 20 22 19 15 15 14 12 11 11 10 7 13 12 13 12 12 14 16 18 22 22 26 32 36 40 32 27 27 25 23 16 17 18 18 22 21 10 2
23 24 25 25 22 21 19 18 17 15 15 15 15 13 12 10 14 17 18 16 14 14 15 18 22 20 22 27 28 32 39 39 43 32 26 26 22 29 28 25 26 20 12
25 26 25 25 27 26 24 23 22 21 22 20 18 18 18 17 22 23 22 14 13 13 15 18 22 26 27 26 27 30 30 40 47 43 35 36 36 28 35 34 27 20 11
25 25 26 26 26 25 24 22 20 20 19 20 20 20 20 20 18 23 23 18 15 17 17 18 23 26 26 25 28 28 30 36 35 41 46 38 33 30 30 27 24 22 4
26 27 26 25 23 23 24 24 23 23 21 21 20 19 17 18 22 25 25 20 20 21 21 22 22 23 25 25 24 25 26 34 32 33 38 28 26 29 32 29 30 24 10
24 23 23 22 23 22 22 20 21 20 19 18 19 19 19 21 23 25 25 24 21 24 22 23 23 30 33 31 24 24 26 25 34 33 35 37 30 30 34 32 30 34 24
23 22 21 20 19 19 20 19 19 19 19 20 21 22 21 23 23 28 29 27 28 24 23 25 28 31 33 30 26 24 24 26 30 27 30 30 30 30 35 34 30 28 27
24 24 21 21 20 20 20 20 20 20 20 20 20 19 22 23 23 27 31 32 25 24 24 26 29 28 28 27 25 24 21 23 27 25 26 27 34 34 33 32 27 26 20
24 23 21 21 22 20 20 18 18 19 20 20 19 21 23 22 23 28 30 30 29 25 25 26 26 24 21 20 19 17 14 16 20 21 23 22 22 24 29 33 27 28 23
23 21 19 19 18 19 18 18 16 15 16 17 17 19 21 22 25 30 30 30 28 28 32 26 20 18 17 16 17 15 11 13 11 12 17 19 23 26 22 27 27 26 19
22 21 21 20 19 19 20 19 16 15 16 15 15 18 22 22 27 27 27 29 28 25 22 20 17 16 15 14 14 13 10 8 8 8 11 17 18 18 24 24 27 19 24
19 19 18 18 19 19 19 19 20 20 18 17 18 20 22 27 27 26 27 28 25 18 13 16 16 14 14 13 12 10 10 6 6 7 11 13 17 19 21 22 21 24 20
18 17 17 19 18 17 18 19 19 20 21 21 19 21 27 29 26 23 25 22 20 18 16 15 16 15 13 12 10 8 5 4 2 5 11 15 16 20 19 21 21 21 22
19 18 19 20 18 19 19 18 18 19 19 20 22 23 26 26 21 22 22 22 21 20 18 17 15 15 13 10 8 5 3 1 4 9 11 15 16 16 16 19 22 21 24
17 16 17 18 17 17 17 18 18 18 19 20 20 21 26 22 23 23 23 22 22 23 22 18 15 13 11 9 7 3 2 5 5 10 14 18 19 19 18 21 22 22 20
16 17 16 14 15 15 15 15 15 15 16 17 17 18 22 21 21 21 21 21 21 21 24 21 18 13 10 8 6 3 3 6 7 12 15 17 22 22 24 23 24 24 26
17 17 16 14 13 14 14 13 13 14 15 16 17 19 21 21 21 21 22 22 21 19 18 19 17 16 15 9 7 6 6 8 9 14 18 21 24 28 30 28 27 25 23
16 17 16 14 13 13 12 12 12 14 15 15 17 18 20 21 21 22 22 22 21 20 20 20 19 18 16 16 17 11 9 9 10 16 20 23 25 27 31 29 28 29 26
16 16 15 14 14 14 13 13 13 13 14 15 16 16 18 18 19 19 20 20 20 22 25 24 26 26 22 21 20 19 19 20 22 22 22 24 26 27 28 28 28 27 26
16 16 16 15 15 15 14 14 13 13 13 14 14 15 16 16 17 17 17 18 19 22 26 27 28 27 28 27 27 27 25 25 27 28 31 33 33 31 31 29 28 27 26
16 16 15 15 15 15 15 15 14 14 13 13 13 14 14 15 15 15 16 17 18 20 23 25 28 29 29 29 27 25 25 27 28 27 28 29 30 29 30 30 27 24 23
Wind_Direction
343 342 341 0 352 351 354 6 28 29 18 24 335 170 168 186 182 241 237 239 236 240 237 234 234 232 231 230 232 230 230 232 247 236 226 211 199 209 213 221 221 221 223
337 353 343 346 353 356 344 7 16 14 14 11 346 34 42 17 340 268 306 243 237 236 236 235 236 233 234 231 228 228 227 226 233 246 213 196 194 198 211 219 220 224 223
338 354 343 346 349 347 348 1 4 5 5 8 351 23 37 27 296 281 279 311 284 270 250 242 240 236 231 228 224 221 224 225 224 229 215 188 187 193 201 214 217 221 224
344 350 351 347 355 349 352 1 353 358 355 354 355 2 12 352 347 18 354 336 309 301 288 274 258 244 231 230 226 223 221 217 217 220 208 178 198 205 210 215 218 225 228
350 350 357 350 355 353 350 341 350 354 351 353 345 354 3 16 37 16 349 324 305 298 290 286 281 259 246 242 230 228 224 219 218 217 185 170 180 180 202 212 213 226 230
351 349 351 354 355 349 340 340 344 330 333 353 349 358 0 357 345 340 341 317 305 298 293 289 281 278 263 255 251 238 230 219 219 214 208 203 199 204 201 198 195 184 228
351 350 350 350 351 349 344 342 340 336 343 3 346 353 355 352 338 338 337 332 319 307 302 297 292 289 278 267 267 262 238 251 236 220 207 203 202 205 205 202 199 201 206
349 349 349 349 347 347 346 346 346 348 356 355 341 349 353 346 344 342 341 338 323 313 305 296 291 294 285 283 279 257 260 242 235 224 213 216 221 228 222 222 212 187 183
349 347 345 344 345 346 347 345 345 344 350 350 345 345 353 338 339 339 341 334 329 320 312 311 311 305 306 299 295 278 254 251 254 238 225 220 216 209 213 207 174 162 150
345 340 343 344 344 345 345 344 347 349 351 348 346 349 337 344 347 344 346 335 328 322 318 316 318 314 314 313 308 291 261 256 257 248 239 234 214 214 220 229 209 174 141
340 339 342 342 343 344 343 345 348 349 346 348 349 350 356 354 348 348 351 340 327 324 317 318 317 319 316 313 307 293 272 268 262 256 247 241 221 207 211 215 220 207 181
339 340 341 342 344 344 345 347 351 351 349 351 352 354 351 351 350 351 352 344 334 321 311 313 316 320 320 317 305 294 284 272 258 248 229 221 220 204 206 210 214 210 216
339 340 339 341 345 346 349 351 351 354 353 352 351 348 342 344 344 349 347 348 337 332 321 314 315 318 320 319 316 310 294 272 242 214 210 213 220 218 201 197 198 198 198
339 333 337 342 341 347 351 350 350 351 351 346 341 341 335 335 340 342 338 338 338 334 329 322 318 316 314 311 315 316 305 276 252 235 217 213 203 188 182 188 169 174 152
334 333 340 341 342 343 346 346 346 348 341 334 337 335 334 332 336 333 330 328 326 321 321 317 312 316 318 321 322 319 314 301 276 240 205 188 176 174 172 176 164 154 146
332 333 336 336 342 343 342 342 345 344 343 344 344 343 337 335 334 333 332 327 321 315 313 308 309 315 314 318 318 318 316 304 281 246 211 177 165 159 157 156 159 157 140
329 329 333 339 342 342 341 341 338 342 345 348 349 346 345 339 339 341 339 334 331 327 312 321 316 316 315 314 312 313 303 300 273 214 182 170 159 152 147 144 144 138 140
327 332 341 338 335 339 339 341 340 340 343 346 352 356 349 345 344 350 349 346 349 349 342 335 325 322 320 317 314 307 312 285 193 174 165 161 156 149 145 138 137 141 142
334 339 340 336 337 340 341 342 342 343 345 344 351 357 350 343 347 359 359 358 350 349 347 343 336 330 328 325 322 319 288 219 164 147 144 139 143 137 132 130 131 142 140
334 337 339 336 337 341 342 343 346 347 350 353 356 355 346 347 2 3 2 359 353 350 349 343 340 340 342 341 338 340 85 105 128 118 123 127 130 125 122 123 131 138 140
335 338 338 338 342 342 343 345 348 348 352 354 355 358 357 3 3 3 3 0 356 351 347 348 351 350 353 355 356 25 84 112 128 119 119 121 122 116 117 113 111 109 114
339 340 340 340 344 343 343 347 351 352 355 358 359 2 7 12 13 10 11 7 2 360 358 357 358 5 12 13 24 45 82 98 112 116 118 118 115 111 111 110 110 107 107
343 340 341 344 345 341 348 350 356 357 358 3 5 6 9 12 14 15 15 14 14 12 15 20 21 21 28 37 44 56 77 86 105 114 114 116 114 113 114 113 111 109 106
345 345 345 345 348 346 353 354 358 1 4 7 11 12 12 13 15 17 18 18 20 22 28 30 36 44 49 52 62 67 75 81 88 95 100 104 103 105 107 108 109 112 114
352 351 350 350 350 353 355 357 2 5 7 11 14 15 15 15 17 17 18 19 23 28 30 33 40 44 50 62 71 76 86 92 95 95 93 93 91 91 91 91 94 95 99
354 356 355 354 357 357 358 359 2 5 9 11 16 19 19 19 16 15 17 20 24 31 40 39 44 50 53 59 66 78 84 87 89 93 96 94 92 90 93 94 96 95 98
Height
755 750 740 729 729 714 714 704 697 697 698 698 702 700 700 701 701 704 701 709 713 718 720 723 725 727 728 730 732 734 736 738 739 739 741 745 747 751 756 759 764 767 771
758 748 745 741 733 723 720 711 705 705 703 703 703 697 695 694 697 703 704 708 710 712 713 717 718 720 721 722 723 725 728 730 734 735 735 738 742 745 750 753 756 760 763
759 750 747 740 734 732 720 714 713 710 708 705 708 701 697 700 703 705 706 706 707 707 708 710 711 712 712 714 714 716 719 721 724 728 730 733 736 738 743 747 749 753 756
760 752 746 739 726 721 723 720 721 717 713 709 707 706 704 705 704 704 703 703 706 703 702 705 705 706 705 706 707 708 710 711 716 719 722 724 729 733 737 741 744 746 749
762 755 747 743 735 727 723 720 719 719 718 712 711 709 706 704 706 705 706 706 706 702 701 700 700 700 699 699 699 700 702 705 707 710 713 717 721 726 728 731 736 739 742
764 759 754 750 742 740 736 730 725 725 720 716 716 711 707 707 705 710 707 707 704 701 698 697 697 694 693 691 692 693 695 698 700 702 704 708 713 716 723 724 728 734 741
766 761 754 750 746 743 739 735 731 728 722 714 717 712 710 711 712 711 705 699 696 697 695 695 695 691 688 685 684 686 687 689 690 694 696 699 702 705 713 720 718 722 726
766 761 757 753 745 741 738 733 727 722 715 713 715 709 704 704 705 703 699 697 695 695 695 696 694 686 682 681 679 678 681 682 684 684 684 689 690 694 705 707 708 716 723
769 765 760 754 749 744 739 735 732 727 720 717 714 710 703 707 709 705 702 697 693 692 693 688 684 680 675 674 672 672 672 674 677 674 675 679 682 690 693 698 702 711 719
770 764 760 756 754 748 742 736 730 724 720 719 717 712 712 708 705 703 700 697 692 690 685 683 679 676 671 669 668 667 664 664 667 668 669 659 668 677 682 686 690 699 707
775 769 764 759 753 748 746 741 736 731 729 725 719 714 710 709 707 704 700 697 693 687 682 677 673 669 664 661 661 660 659 658 658 659 656 662 667 670 675 679 682 686 693
778 772 768 764 759 755 750 744 738 735 730 724 717 712 712 710 707 703 699 696 693 688 681 677 671 665 659 655 655 654 654 655 655 656 657 659 665 665 667 672 677 682 688
776 772 768 763 758 753 746 741 738 734 730 725 721 718 716 712 708 703 699 694 691 687 682 676 670 664 658 653 649 648 648 649 650 650 650 652 655 659 657 666 673 680 686
777 772 766 760 757 751 746 742 739 736 734 731 728 724 720 715 710 704 700 694 689 684 680 674 668 663 658 653 649 645 645 646 645 642 641 643 647 653 655 659 667 675 681
777 772 767 763 758 754 749 745 742 740 739 734 730 727 723 716 711 707 701 695 689 685 679 673 667 662 657 653 649 645 642 643 642 641 640 640 642 646 656 656 663 669 675
779 773 767 762 757 753 749 745 743 740 737 734 731 728 724 718 712 705 700 695 687 683 678 673 668 664 660 656 652 648 645 644 644 641 641 639 642 646 650 654 661 669 673
781 777 771 764 759 755 751 746 741 737 735 732 729 727 724 718 710 703 697 692 685 680 677 674 671 666 662 658 654 651 649 644 645 642 640 642 645 649 652 655 662 666 675
781 776 770 766 762 758 753 748 745 741 734 731 729 722 721 716 710 703 697 692 686 681 679 673 673 669 663 659 655 652 648 647 644 645 643 644 648 648 653 654 659 668 675
779 774 770 766 762 758 754 751 748 743 738 733 726 722 724 721 714 703 700 695 689 684 681 675 675 670 664 660 657 653 652 648 649 646 647 645 649 653 652 654 659 671 678
779 775 771 768 764 761 757 753 749 744 740 735 732 731 731 724 709 705 702 699 695 690 683 680 678 672 667 662 659 656 654 651 654 648 649 649 652 654 658 661 668 676 681
780 776 773 769 766 763 760 756 753 749 745 742 740 737 732 722 716 712 708 705 700 695 690 684 678 673 669 666 663 660 659 654 656 652 653 655 656 660 663 667 674 681 684
781 777 773 770 767 764 761 758 755 752 748 745 741 736 731 726 722 718 713 708 705 701 697 690 684 679 674 669 666 664 662 659 660 658 658 659 662 663 668 674 679 685 692
782 779 775 771 769 765 762 759 756 754 750 745 742 738 734 730 727 722 718 714 711 707 702 696 690 685 680 674 670 669 667 666 666 664 664 665 668 670 673 681 685 689 697
783 780 777 773 770 766 763 760 757 755 752 748 744 741 738 735 732 729 725 722 719 714 708 703 697 692 686 682 678 676 675 673 671 671 671 673 674 677 681 686 690 696 701
785 782 779 775 772 768 765 762 759 757 754 751 748 746 744 742 739 737 733 730 726 721 716 711 705 701 696 691 687 684 684 681 680 680 680 680 683 686 687 692 697 703 709
788 785 781 778 775 772 769 765 762 760 758 755 753 751 749 747 746 743 740 736 732 727 723 719 714 709 705 701 698 695 693 690 689 691 691 691 694 696 698 702 709 715 718